timestamp,wind_dir_avg,wind_spd_max_dir,wind_spd_avg,wind_spd_gust,battery_voltage,lat,long
2022-11-25 00:04:00+00:00,299.0,294.0,14.63,16.26,12.41,47.59359,-54.27349
2022-11-25 00:14:00+00:00,305.0,303.0,17.0,24.05,12.41,47.59359,-54.27349
2022-11-25 00:24:00+00:00,305.0,308.0,14.68,16.56,12.41,47.59359,-54.27349
2022-11-25 00:34:00+00:00,302.0,298.0,17.08,22.58,12.41,47.59359,-54.27349
2022-11-25 00:44:00+00:00,305.0,307.0,19.3,25.05,12.41,47.59359,-54.27349
2022-11-25 00:54:00+00:00,308.0,315.0,15.56,19.55,12.41,47.59359,-54.27349
2022-11-25 01:04:00+00:00,307.0,307.0,17.28,21.32,12.41,47.59359,-54.27349
2022-11-25 01:14:00+00:00,304.0,288.0,16.8,21.93,12.33,47.59359,-54.27349
2022-11-25 01:24:00+00:00,293.0,298.0,18.97,23.41,12.33,47.59359,-54.27349
2022-11-25 01:34:00+00:00,308.0,302.0,19.9,25.69,12.33,47.59359,-54.27349
2022-11-25 01:44:00+00:00,310.0,301.0,17.52,21.82,12.33,47.59359,-54.27349
2022-11-25 01:54:00+00:00,310.0,307.0,17.01,19.3,12.33,47.59359,-54.27349
2022-11-25 02:04:00+00:00,308.0,303.0,19.19,25.64,12.33,47.59359,-54.27349
2022-11-25 02:14:00+00:00,315.0,309.0,20.04,27.02,12.33,47.59359,-54.27349
2022-11-25 02:24:00+00:00,310.0,311.0,18.69,25.22,12.33,47.59359,-54.27349
2022-11-25 02:34:00+00:00,305.0,306.0,20.72,27.06,12.33,47.59359,-54.27349
2022-11-25 02:44:00+00:00,313.0,312.0,19.62,28.11,12.33,47.59359,-54.27349
2022-11-25 02:54:00+00:00,310.0,307.0,21.24,27.79,12.33,47.59359,-54.27349
2022-11-25 03:04:00+00:00,315.0,308.0,19.67,26.76,12.33,47.59359,-54.27349
2022-11-25 03:14:01+00:00,311.0,311.0,21.0,28.57,12.33,47.59359,-54.27349
2022-11-25 03:24:01+00:00,307.0,308.0,23.7,28.43,12.33,47.59359,-54.27349
2022-11-25 03:34:01+00:00,313.0,305.0,19.52,26.13,12.33,47.59359,-54.27349
2022-11-25 03:44:01+00:00,315.0,307.0,21.1,28.28,12.33,47.59359,-54.27349
2022-11-25 03:54:01+00:00,313.0,312.0,18.97,28.5,12.33,47.59359,-54.27349
2022-11-25 04:04:01+00:00,314.0,311.0,18.88,27.68,12.33,47.59359,-54.27349
2022-11-25 04:14:00+00:00,311.0,318.0,15.84,23.17,12.33,47.59359,-54.27349
2022-11-25 04:24:00+00:00,321.0,327.0,18.09,24.46,12.33,47.59359,-54.27349
2022-11-25 04:34:00+00:00,316.0,320.0,15.56,19.08,12.33,47.59359,-54.27349
2022-11-25 04:44:00+00:00,315.0,305.0,19.88,26.78,12.33,47.59359,-54.27349
2022-11-25 04:54:00+00:00,316.0,322.0,16.56,20.56,12.33,47.59359,-54.27349
2022-11-25 05:04:00+00:00,318.0,308.0,17.17,26.47,12.33,47.59359,-54.27349
2022-11-25 05:14:00+00:00,315.0,311.0,14.29,17.39,12.33,47.59359,-54.27349
2022-11-25 05:24:00+00:00,319.0,321.0,17.28,24.26,12.33,47.59359,-54.27349
2022-11-25 05:34:00+00:00,315.0,309.0,18.06,22.88,12.33,47.59359,-54.27349
2022-11-25 05:44:00+00:00,311.0,315.0,16.94,26.46,12.33,47.59359,-54.27349
2022-11-25 05:54:00+00:00,312.0,321.0,15.81,19.55,12.33,47.59359,-54.27349
2022-11-25 06:04:00+00:00,312.0,323.0,14.77,19.44,12.33,47.59359,-54.27349
2022-11-25 06:14:01+00:00,313.0,312.0,13.88,17.03,12.25,47.59359,-54.27349
2022-11-25 06:24:01+00:00,320.0,323.0,15.02,20.33,12.25,47.59359,-54.27349
2022-11-25 06:34:01+00:00,318.0,323.0,15.04,18.88,12.25,47.59359,-54.27349
2022-11-25 06:44:01+00:00,317.0,343.0,13.7,17.36,12.25,47.59359,-54.27349
2022-11-25 06:54:01+00:00,321.0,309.0,14.7,17.16,12.25,47.59359,-54.27349
2022-11-25 07:04:01+00:00,316.0,318.0,14.78,17.58,12.25,47.59359,-54.27349
2022-11-25 07:14:01+00:00,320.0,311.0,13.83,16.98,12.25,47.59359,-54.27349
2022-11-25 07:24:01+00:00,323.0,326.0,14.41,17.6,12.25,47.59359,-54.27349
2022-11-25 07:34:01+00:00,319.0,320.0,14.56,17.99,12.25,47.59359,-54.27349
2022-11-25 07:44:01+00:00,319.0,315.0,15.96,19.85,12.25,47.59359,-54.27349
2022-11-25 07:54:01+00:00,322.0,322.0,16.09,19.66,12.25,47.59359,-54.27349
2022-11-25 08:04:01+00:00,322.0,326.0,15.81,19.23,12.25,47.59359,-54.27349
2022-11-25 08:14:00+00:00,322.0,312.0,15.8,18.89,12.17,47.59359,-54.27349
2022-11-25 08:24:00+00:00,318.0,321.0,14.74,16.79,12.17,47.59359,-54.27349
2022-11-25 08:34:00+00:00,319.0,325.0,15.08,17.48,12.17,47.59359,-54.27349
2022-11-25 08:44:00+00:00,318.0,323.0,15.25,17.42,12.17,47.59359,-54.27349
2022-11-25 08:54:00+00:00,322.0,330.0,15.88,18.55,12.17,47.59359,-54.27349
2022-11-25 09:04:00+00:00,320.0,319.0,14.85,17.12,12.17,47.59359,-54.27349
2022-11-25 09:14:00+00:00,316.0,319.0,14.88,17.88,12.17,47.59359,-54.27349
2022-11-25 09:24:00+00:00,319.0,314.0,15.72,19.07,12.17,47.59359,-54.27349
2022-11-25 09:34:00+00:00,322.0,310.0,16.65,19.85,12.17,47.59359,-54.27349
2022-11-25 09:44:00+00:00,318.0,314.0,15.89,19.51,12.17,47.59359,-54.27349
2022-11-25 09:54:00+00:00,319.0,324.0,14.58,17.86,12.17,47.59359,-54.27349
2022-11-25 10:04:00+00:00,316.0,321.0,12.35,15.78,12.17,47.59359,-54.27349
2022-11-25 10:14:00+00:00,315.0,308.0,16.17,21.69,12.17,47.59359,-54.27349
2022-11-25 10:24:00+00:00,317.0,323.0,14.78,16.73,12.17,47.59359,-54.27349
2022-11-25 10:34:00+00:00,317.0,318.0,14.97,18.11,12.17,47.59359,-54.27349
2022-11-25 10:44:00+00:00,321.0,324.0,13.29,15.44,12.17,47.59359,-54.27349
2022-11-25 10:54:00+00:00,321.0,318.0,14.78,17.37,12.17,47.59359,-54.27349
2022-11-25 11:04:00+00:00,318.0,319.0,13.34,16.33,12.17,47.59359,-54.27349
2022-11-25 11:14:00+00:00,316.0,303.0,13.6,16.58,12.17,47.59359,-54.27349
2022-11-25 11:24:00+00:00,318.0,328.0,13.16,15.46,12.17,47.59359,-54.27349
2022-11-25 11:34:00+00:00,320.0,324.0,14.02,16.13,12.17,47.59359,-54.27349
2022-11-25 11:44:00+00:00,314.0,316.0,12.86,14.75,12.17,47.59359,-54.27349
2022-11-25 11:54:00+00:00,323.0,321.0,14.2,16.79,12.17,47.59359,-54.27349
2022-11-25 12:04:00+00:00,321.0,326.0,14.06,16.01,12.17,47.59359,-54.27349
2022-11-25 12:14:00+00:00,319.0,327.0,13.6,15.86,13.29,47.59359,-54.27349
2022-11-25 12:24:00+00:00,313.0,314.0,12.85,14.88,13.29,47.59359,-54.27349
2022-11-25 12:34:00+00:00,313.0,316.0,12.42,16.13,13.29,47.59359,-54.27349
2022-11-25 12:44:00+00:00,318.0,321.0,14.01,16.64,13.29,47.59359,-54.27349
2022-11-25 12:54:00+00:00,322.0,316.0,13.73,15.76,13.29,47.59359,-54.27349
2022-11-25 13:04:00+00:00,316.0,314.0,12.43,15.55,13.29,47.59359,-54.27349
2022-11-25 13:14:01+00:00,317.0,,,,,47.59359,-54.27349
2022-11-25 13:24:01+00:00,320.0,,,,,47.59359,-54.27349
2022-11-25 13:34:01+00:00,315.0,,,,,47.59359,-54.27349
2022-11-25 13:44:01+00:00,315.0,,,,,47.59359,-54.27349
2022-11-25 13:54:01+00:00,314.0,,,,,47.59359,-54.27349
2022-11-25 14:04:01+00:00,313.0,,,,,47.59359,-54.27349
2022-11-25 14:14:01+00:00,321.0,327.0,13.02,14.66,13.84,47.59359,-54.27349
2022-11-25 14:24:01+00:00,323.0,322.0,13.33,16.42,13.84,47.59359,-54.27349
2022-11-25 14:34:01+00:00,309.0,318.0,10.97,13.39,13.84,47.59359,-54.27349
2022-11-25 14:44:01+00:00,311.0,306.0,9.4,12.44,13.84,47.59359,-54.27349
2022-11-25 14:54:01+00:00,322.0,313.0,11.61,13.37,13.84,47.59359,-54.27349
2022-11-25 15:04:01+00:00,322.0,311.0,10.27,12.71,13.84,47.59359,-54.27349
2022-11-25 16:14:01+00:00,307.0,309.0,10.98,12.33,13.6,47.59359,-54.27349
2022-11-25 16:24:01+00:00,310.0,307.0,11.15,12.71,13.6,47.59359,-54.27349
2022-11-25 16:34:01+00:00,322.0,324.0,7.15,8.68,13.6,47.59359,-54.27349
2022-11-25 16:44:01+00:00,326.0,308.0,8.19,11.36,13.6,47.59359,-54.27349
2022-11-25 16:54:01+00:00,319.0,305.0,7.66,11.68,13.6,47.59359,-54.27349
2022-11-25 17:04:01+00:00,317.0,308.0,8.72,11.99,13.6,47.59359,-54.27349
2022-11-25 17:14:01+00:00,320.0,321.0,4.81,6.63,13.76,47.59359,-54.27349
2022-11-25 17:24:01+00:00,309.0,298.0,5.88,8.12,13.76,47.59359,-54.27349
2022-11-25 17:34:01+00:00,337.0,332.0,5.28,6.99,13.76,47.59359,-54.27349
2022-11-25 17:44:01+00:00,308.0,313.0,4.54,5.31,13.76,47.59359,-54.27349
2022-11-25 17:54:01+00:00,302.0,287.0,5.81,10.37,13.76,47.59359,-54.27349
2022-11-25 18:04:01+00:00,302.0,298.0,8.02,11.02,13.76,47.59359,-54.27349
2022-11-25 18:14:01+00:00,297.0,298.0,9.2,10.71,14.4,47.59359,-54.27349
2022-11-25 18:24:01+00:00,301.0,300.0,9.9,11.8,14.4,47.59359,-54.27349
2022-11-25 18:34:01+00:00,301.0,302.0,10.47,11.92,14.4,47.59359,-54.27349
2022-11-25 18:44:01+00:00,301.0,300.0,8.94,11.54,14.4,47.59359,-54.27349
2022-11-25 18:54:01+00:00,290.0,289.0,9.51,10.74,14.4,47.59359,-54.27349
2022-11-25 19:04:01+00:00,301.0,304.0,9.57,11.34,14.4,47.59359,-54.27349
2022-11-25 19:14:00+00:00,298.0,295.0,8.76,11.05,13.6,47.59359,-54.27349
2022-11-25 19:24:00+00:00,294.0,291.0,8.24,10.64,13.6,47.59359,-54.27349
2022-11-25 19:34:00+00:00,288.0,286.0,7.95,10.25,13.6,47.59359,-54.27349
2022-11-25 19:44:00+00:00,296.0,292.0,8.04,9.82,13.6,47.59359,-54.27349
2022-11-25 19:54:00+00:00,283.0,281.0,7.25,9.53,13.6,47.59359,-54.27349
2022-11-25 20:04:00+00:00,277.0,278.0,8.36,10.23,13.6,47.59359,-54.27349
2022-11-25 20:14:00+00:00,280.0,282.0,7.12,9.44,12.65,47.59359,-54.27349
2022-11-25 20:24:00+00:00,282.0,284.0,8.87,10.61,12.65,47.59359,-54.27349
2022-11-25 20:34:00+00:00,289.0,290.0,7.73,10.56,12.65,47.59359,-54.27349
2022-11-25 20:44:00+00:00,281.0,276.0,7.53,10.23,12.65,47.59359,-54.27349
2022-11-25 20:54:00+00:00,283.0,286.0,8.88,10.44,12.65,47.59359,-54.27349
2022-11-25 21:04:00+00:00,277.0,276.0,6.36,10.26,12.65,47.59359,-54.27349
2022-11-25 21:14:00+00:00,271.0,271.0,9.44,10.12,12.49,47.59359,-54.27349
2022-11-25 21:24:00+00:00,260.0,258.0,3.86,4.24,12.49,47.59359,-54.27349
2022-11-25 21:34:00+00:00,267.0,272.0,3.08,3.51,12.49,47.59359,-54.27349
2022-11-25 21:44:00+00:00,272.0,267.0,3.34,4.07,12.49,47.59359,-54.27349
2022-11-25 21:54:00+00:00,291.0,287.0,4.07,4.63,12.49,47.59359,-54.27349
2022-11-25 22:04:00+00:00,294.0,290.0,5.04,5.54,12.49,47.59359,-54.27349
2022-11-25 22:14:00+00:00,275.0,282.0,3.09,3.88,12.41,47.59359,-54.27349
2022-11-25 22:24:00+00:00,246.0,242.0,2.6,3.35,12.41,47.59359,-54.27349
2022-11-25 22:34:00+00:00,252.0,255.0,1.74,2.66,12.41,47.59359,-54.27349
2022-11-25 22:44:00+00:00,286.0,269.0,3.11,3.65,12.41,47.59359,-54.27349
2022-11-25 22:54:00+00:00,265.0,270.0,2.41,3.15,12.41,47.59359,-54.27349
2022-11-25 23:04:00+00:00,281.0,272.0,3.01,3.45,12.41,47.59359,-54.27349
2022-11-25 23:14:01+00:00,253.0,254.0,3.59,4.38,12.41,47.59359,-54.27349
2022-11-25 23:24:01+00:00,236.0,242.0,5.1,6.04,12.41,47.59359,-54.27349
2022-11-25 23:34:01+00:00,247.0,256.0,7.55,10.13,12.41,47.59359,-54.27349
2022-11-25 23:44:01+00:00,249.0,246.0,4.81,5.59,12.41,47.59359,-54.27349
2022-11-25 23:54:01+00:00,250.0,249.0,4.21,4.61,12.41,47.59359,-54.27349
